Lid_Strength_Index
0 0 0 0 -0 -0 -0 -0 -0 -1 -1 -1 -0 -1 -1 -1 -0 3 5 3 2 -1 -0 3 3 3 3 3 3 4 7 8 8 8 7 7 8 7 7 6 7 6 6 7 6
1 1 1 0 0 -0 -0 -0 -0 -0 -0 -0 -0 -1 -0 -1 2 4 1 -0 -1 -1 3 4 4 4 4 4 4 6 7 7 6 6 7 7 7 6 8 7 7 7 6 7 7
1 1 1 1 0 0 -0 -0 -0 -0 -0 -0 -0 -1 -0 -0 4 4 -1 -1 -1 0 3 3 4 4 5 5 5 5 7 6 6 6 6 7 7 6 7 8 6 6 6 7 7
2 2 2 1 1 0 0 0 -0 -0 -0 -0 -0 -1 -0 1 8 4 -1 -1 -1 2 4 4 4 5 6 6 5 7 6 6 6 7 7 7 6 7 7 6 6 5 5 6 8
2 2 2 2 1 1 1 0 -0 -0 -0 -0 -0 -1 1 5 5 3 1 1 3 4 4 5 5 5 6 6 6 7 6 6 6 7 7 7 8 7 6 5 5 5 7 6 7
2 2 3 3 2 1 1 1 0 -0 -0 -0 -0 -0 3 7 3 3 4 4 4 4 5 5 5 4 6 7 7 6 7 7 6 7 7 8 7 8 6 5 5 5 7 7 6
2 2 3 3 2 2 2 1 1 0 0 -0 -1 1 4 6 3 3 4 4 4 4 5 5 4 5 5 6 6 7 8 7 6 7 8 8 9 8 6 6 7 6 6 6 6
3 3 3 3 3 2 2 1 1 0 0 -0 -1 2 6 3 2 4 4 5 5 5 5 5 5 5 6 6 7 8 8 10 7 7 7 8 11 7 6 6 8 7 6 7 7
3 4 3 3 3 3 2 2 1 1 1 0 1 3 7 4 4 4 4 5 5 5 5 5 5 6 7 8 8 8 10 9 8 7 8 9 10 7 6 7 7 7 6 6 7
4 4 4 3 3 3 3 2 1 2 1 2 4 5 5 6 4 5 5 5 6 5 6 6 6 7 7 8 11 10 10 9 9 8 9 9 10 8 7 7 7 7 7 6 6
4 4 4 3 3 3 3 4 6 6 5 6 6 5 7 5 4 5 6 6 6 7 8 7 9 10 8 7 8 8 9 10 9 7 9 10 10 9 7 7 7 7 7 7 6
3 4 3 3 3 3 4 7 6 6 10 7 6 7 6 4 7 6 6 7 8 9 7 9 11 8 7 8 9 9 10 10 8 8 11 10 11 9 8 8 8 8 7 7 7
3 3 4 3 3 4 6 6 4 5 9 9 7 8 7 6 8 7 7 7 8 9 9 10 9 8 9 9 10 10 11 10 10 8 10 11 12 10 9 8 8 8 8 8 8
3 3 3 3 5 5 7 6 5 5 12 11 11 9 8 8 10 9 8 8 9 10 9 9 8 9 10 10 9 11 8 9 10 11 13 11 15 11 10 10 10 10 8 8 8
3 3 3 4 4 6 6 6 5 8 17 11 11 8 8 10 10 11 9 10 10 10 10 10 10 11 11 10 8 10 10 10 10 11 12 12 14 13 12 12 11 10 8 7 7
3 3 3 4 4 4 5 5 6 13 17 13 11 11 11 11 12 11 10 9 10 11 10 10 10 10 9 11 10 11 11 12 12 12 16 13 13 14 12 12 10 9 8 7 8
3 4 4 4 5 5 5 6 13 16 12 13 12 11 11 11 12 12 13 13 13 14 13 10 11 10 10 11 11 11 11 13 15 16 16 11 14 12 10 10 10 9 8 7 8
3 4 5 4 4 5 7 10 16 13 12 11 12 11 12 11 12 12 12 13 12 12 13 13 14 12 10 10 9 12 10 13 19 16 15 14 16 13 9 9 9 9 8 8 8
3 4 5 5 5 5 9 14 13 11 10 11 12 13 13 12 11 11 12 11 10 11 13 13 14 13 11 11 10 12 14 10 13 14 16 15 12 10 9 10 10 10 9 9 9
4 5 6 5 6 7 12 13 10 9 9 11 13 11 13 12 13 12 12 10 10 9 9 11 14 11 14 13 13 13 12 14 14 18 18 16 14 14 11 11 10 10 10 8 9
4 8 5 6 6 11 16 15 10 8 8 12 12 12 12 12 11 12 12 10 10 10 10 11 12 14 15 15 14 15 15 14 14 13 16 17 16 11 11 10 10 9 9 8 8
4 10 6 6 12 12 15 12 10 9 9 11 10 12 12 11 12 12 12 11 9 10 13 11 13 16 14 11 12 12 13 13 16 16 14 15 16 11 10 10 10 9 9 8 7
6 7 5 5 13 13 12 11 9 10 10 11 13 12 12 13 15 13 12 10 9 10 11 12 14 16 15 15 15 15 13 13 12 13 16 17 15 10 10 9 9 9 8 9 9
6 10 8 8 7 10 12 12 11 9 9 10 12 11 12 14 13 14 13 11 10 11 11 10 13 15 17 14 12 14 14 14 14 16 16 15 14 12 11 10 9 9 8 8 8
5 9 8 11 10 10 9 10 11 12 9 9 11 11 12 14 13 14 12 12 11 12 12 12 15 14 13 12 12 13 13 14 15 15 16 15 14 12 11 10 9 9 9 9 9
7 8 8 8 8 9 10 11 11 10 9 10 11 10 10 12 11 12 12 12 12 12 12 11 15 14 16 14 14 15 13 13 13 13 13 13 14 11 10 9 10 9 9 9 9
4 5 9 9 9 10 11 10 10 9 8 8 8 9 10 9 8 8 8 8 9 11 13 14 14 15 17 14 14 17 14 13 13 12 12 14 12 9 10 9 9 8 8 9 9